EN

Hourly Weather Ambukiv

Today, 28 January, Thursday

Time Temperature Precipitation Wind Pressure Humidity
00:00 -6°C° 0.1 mm 3 mps 738 mmHg 95%
01:00 -6°C° 0.1 mm 3 mps 738 mmHg 95%
02:00 -6°C° 0 mm 3 mps 738 mmHg 95%
03:00 -6°C° 0.1 mm 3 mps 738 mmHg 95%
04:00 -6°C° 0.1 mm 3 mps 738 mmHg 95%
05:00 -6°C° 0.1 mm 3 mps 737 mmHg 95%
06:00 -7°C° 0 mm 3 mps 737 mmHg 95%
07:00 -7°C° 0 mm 3 mps 737 mmHg 96%
08:00 -8°C° 0 mm 3 mps 737 mmHg 96%
09:00 -7°C° 0 mm 3 mps 737 mmHg 95%
10:00 -6°C° 0 mm 3 mps 737 mmHg 94%
11:00 -5°C° 0 mm 3 mps 737 mmHg 93%
12:00 -5°C° 0 mm 3 mps 736 mmHg 90%
13:00 -4°C° 0 mm 3 mps 736 mmHg 87%
14:00 -4°C° 0 mm 3 mps 735 mmHg 84%
15:00 -5°C° 0 mm 3 mps 735 mmHg 87%
16:00 -6°C° 0 mm 3 mps 734 mmHg 89%
17:00 -6°C° 0 mm 2 mps 734 mmHg 91%
18:00 -7°C° 0 mm 3 mps 733 mmHg 91%
19:00 -7°C° 0 mm 3 mps 733 mmHg 90%
20:00 -7°C° 0 mm 3 mps 732 mmHg 89%
21:00 -8°C° 0.1 mm 4 mps 732 mmHg 90%
22:00 -7°C° 0.1 mm 4 mps 731 mmHg 90%
23:00 -6°C° 0.1 mm 5 mps 731 mmHg 91%

Tomorrow, 29 January, Friday

Time Temperature Precipitation Wind Pressure Humidity
00:00 -6°C° 0.3 mm 5 mps 730 mmHg 92%
01:00 -6°C° 0.3 mm 5 mps 730 mmHg 94%
02:00 -5°C° 0.3 mm 5 mps 730 mmHg 95%
03:00 -5°C° 0.3 mm 5 mps 729 mmHg 95%
04:00 -5°C° 0.3 mm 5 mps 729 mmHg 95%
05:00 -5°C° 0.3 mm 5 mps 729 mmHg 95%
06:00 -5°C° 0 mm 4 mps 729 mmHg 94%
07:00 -7°C° 0 mm 4 mps 729 mmHg 93%
08:00 -8°C° 0 mm 4 mps 729 mmHg 93%
09:00 -8°C° 0 mm 4 mps 729 mmHg 91%
10:00 -7°C° 0 mm 5 mps 729 mmHg 90%
11:00 -8°C° 0 mm 6 mps 729 mmHg 88%
12:00 -6°C° 0 mm 6 mps 729 mmHg 88%
13:00 -6°C° 0 mm 6 mps 729 mmHg 87%
14:00 -6°C° 0 mm 7 mps 729 mmHg 87%
15:00 -6°C° 0 mm 6 mps 729 mmHg 87%
16:00 -6°C° 0 mm 5 mps 729 mmHg 88%
17:00 -5°C° 0 mm 4 mps 729 mmHg 88%
18:00 -6°C° 0 mm 3 mps 729 mmHg 89%
19:00 -6°C° 0 mm 2 mps 729 mmHg 90%
20:00 -7°C° 0 mm 2 mps 729 mmHg 91%
21:00 -6°C° 0 mm 1 mps 729 mmHg 91%
22:00 -6°C° 0 mm 1 mps 729 mmHg 90%
23:00 -6°C° 0 mm 1 mps 729 mmHg 90%

Day after tomorrow, 30 January, Saturday

Time Temperature Precipitation Wind Pressure Humidity
00:00 -6°C° 0 mm 1 mps 729 mmHg 90%
01:00 -4°C° 0 mm 1 mps 728 mmHg 91%
02:00 -4°C° 0 mm 1 mps 728 mmHg 92%
03:00 -6°C° 0.6 mm 2 mps 728 mmHg 93%
04:00 -5°C° 0.6 mm 2 mps 727 mmHg 95%
05:00 -5°C° 0.6 mm 2 mps 727 mmHg 96%
06:00 -6°C° 0.1 mm 2 mps 727 mmHg 96%
07:00 -4°C° 0.1 mm 1 mps 727 mmHg 96%
08:00 -6°C° 0.1 mm 1 mps 726 mmHg 97%
09:00 -4°C° 0.1 mm 1 mps 726 mmHg 96%
10:00 -3°C° 0.1 mm 1 mps 726 mmHg 96%
11:00 -2°C° 0.1 mm 1 mps 726 mmHg 95%
12:00 -3°C° 0.8 mm 2 mps 725 mmHg 96%
13:00 -2°C° 0.8 mm 2 mps 725 mmHg 97%
14:00 -2°C° 0.8 mm 3 mps 724 mmHg 98%
15:00 -3°C° 1.4 mm 4 mps 724 mmHg 98%
16:00 -2°C° 1.4 mm 4 mps 723 mmHg 98%
17:00 -2°C° 1.4 mm 5 mps 723 mmHg 98%
18:00 -4°C° 0.5 mm 6 mps 724 mmHg 96%
19:00 -5°C° 0.5 mm 6 mps 725 mmHg 95%
20:00 -7°C° 0.5 mm 7 mps 726 mmHg 94%
21:00 -8°C° 0.1 mm 6 mps 727 mmHg 94%
22:00 -8°C° 0.1 mm 6 mps 728 mmHg 94%
23:00 -7°C° 0.1 mm 5 mps 729 mmHg 93%

31 January, Sunday

Time Temperature Precipitation Wind Pressure Humidity
00:00 -8°C° 0 mm 5 mps 730 mmHg 94%
01:00 -8°C° 0 mm 4 mps 731 mmHg 94%
02:00 -9°C° 0 mm 4 mps 731 mmHg 95%
03:00 -10°C° 0 mm 4 mps 732 mmHg 94%
04:00 -11°C° 0 mm 4 mps 732 mmHg 94%
05:00 -12°C° 0 mm 3 mps 732 mmHg 94%
06:00 -13°C° 0 mm 3 mps 732 mmHg 93%
07:00 -13°C° 0 mm 3 mps 733 mmHg 92%
08:00 -13°C° 0 mm 2 mps 733 mmHg 92%
09:00 -10°C° 0 mm 2 mps 734 mmHg 91%
10:00 -9°C° 0 mm 2 mps 734 mmHg 91%
11:00 -8°C° 0 mm 2 mps 735 mmHg 90%
12:00 -7°C° 0 mm 2 mps 735 mmHg 89%
13:00 -4°C° 0 mm 1 mps 735 mmHg 87%
14:00 -4°C° 0 mm 1 mps 735 mmHg 85%
15:00 -4°C° 0 mm 1 mps 735 mmHg 86%
16:00 -6°C° 0 mm 1 mps 734 mmHg 87%
17:00 -7°C° 0 mm 1 mps 734 mmHg 88%
18:00 -8°C° 0 mm 1 mps 734 mmHg 88%
19:00 -9°C° 0 mm 2 mps 734 mmHg 88%
20:00 -10°C° 0 mm 2 mps 734 mmHg 88%
21:00 -10°C° 0 mm 2 mps 734 mmHg 88%
22:00 -12°C° 0 mm 3 mps 734 mmHg 88%
23:00 -12°C° 0 mm 3 mps 733 mmHg 88%

1 February, Monday

Time Temperature Precipitation Wind Pressure Humidity
00:00 -12°C° 0 mm 3 mps 733 mmHg 88%
01:00 -12°C° 0 mm 3 mps 732 mmHg 89%
02:00 -10°C° 0 mm 3 mps 732 mmHg 89%
03:00 -10°C° 0 mm 3 mps 731 mmHg 91%
04:00 -10°C° 0 mm 3 mps 731 mmHg 92%
05:00 -10°C° 0 mm 3 mps 731 mmHg 93%
06:00 -10°C° 0 mm 3 mps 731 mmHg 94%
07:00 -10°C° 0 mm 3 mps 731 mmHg 94%
08:00 -9°C° 0 mm 3 mps 731 mmHg 95%
09:00 -9°C° 0 mm 3 mps 731 mmHg 95%
10:00 -8°C° 0 mm 3 mps 731 mmHg 95%
11:00 -7°C° 0 mm 3 mps 731 mmHg 95%
12:00 -7°C° 0 mm 3 mps 731 mmHg 95%
13:00 -6°C° 0 mm 3 mps 731 mmHg 94%
14:00 -5°C° 0 mm 2 mps 731 mmHg 94%
15:00 -6°C° 0 mm 3 mps 731 mmHg 94%
16:00 -6°C° 0 mm 3 mps 731 mmHg 94%
17:00 -6°C° 0 mm 3 mps 732 mmHg 94%
18:00 -6°C° 0 mm 2 mps 732 mmHg 94%
19:00 -7°C° 0 mm 2 mps 733 mmHg 94%
20:00 -8°C° 0 mm 2 mps 734 mmHg 94%
21:00 -9°C° 0 mm 2 mps 734 mmHg 93%
22:00 -8°C° 0 mm 1 mps 735 mmHg 93%
23:00 -9°C° 0 mm 1 mps 736 mmHg 92%

2 February, Tuesday

Time Temperature Precipitation Wind Pressure Humidity
00:00 -9°C° 0 mm 1 mps 736 mmHg 92%
01:00 -10°C° 0 mm 1 mps 737 mmHg 91%
02:00 -10°C° 0 mm 1 mps 737 mmHg 91%
03:00 -10°C° 0 mm 1 mps 738 mmHg 91%
04:00 -11°C° 0 mm 1 mps 738 mmHg 90%
05:00 -11°C° 0 mm 1 mps 739 mmHg 90%
06:00 -12°C° 0 mm 1 mps 739 mmHg 90%
07:00 -12°C° 0 mm 1 mps 740 mmHg 90%
08:00 -12°C° 0 mm 1 mps 741 mmHg 89%
09:00 -10°C° 0 mm 1 mps 741 mmHg 90%
10:00 -9°C° 0 mm 1 mps 742 mmHg 90%
11:00 -7°C° 0 mm 1 mps 743 mmHg 90%
12:00 -6°C° 0 mm 1 mps 743 mmHg 90%
13:00 -6°C° 0 mm 2 mps 743 mmHg 91%
14:00 -5°C° 0 mm 2 mps 743 mmHg 91%
15:00 -6°C° 0 mm 2 mps 743 mmHg 92%
16:00 -6°C° 0 mm 2 mps 743 mmHg 93%
17:00 -7°C° 0 mm 2 mps 743 mmHg 94%
18:00 -7°C° 0 mm 2 mps 744 mmHg 93%
19:00 -8°C° 0 mm 2 mps 744 mmHg 92%
20:00 -8°C° 0 mm 2 mps 744 mmHg 92%
21:00 -9°C° 0 mm 2 mps 744 mmHg 91%
22:00 -9°C° 0 mm 2 mps 744 mmHg 91%
23:00 -10°C° 0 mm 2 mps 744 mmHg 91%
Show more